TimeCST,TemperatureF,Dew PointF,Humidity,Sea Level PressureIn,VisibilityMPH,Wind Direction,Wind SpeedMPH,Gust SpeedMPH,PrecipitationIn,Events,Conditions,WindDirDegrees,DateUTC
12:52 AM,15.1,6.1,68,30.29,10.0,NNW,9.2,-,N/A,,Clear,340,2013-02-16 06:52:00
1:52 AM,14.0,6.1,71,30.29,10.0,NNW,8.1,-,N/A,,Clear,330,2013-02-16 07:52:00
2:52 AM,12.0,6.1,77,30.27,10.0,NW,5.8,-,N/A,,Clear,320,2013-02-16 08:52:00
3:52 AM,10.4,8.6,92,30.21,10.0,WNW,5.8,-,N/A,,Clear,290,2013-02-16 09:52:00
4:52 AM,10.9,7.0,84,30.25,10.0,WNW,6.9,-,N/A,,Clear,290,2013-02-16 10:52:00
5:52 AM,10.9,8.1,88,30.25,10.0,WNW,6.9,-,N/A,,Clear,290,2013-02-16 11:52:00
6:52 AM,10.9,8.1,88,30.24,10.0,WNW,6.9,-,N/A,,Clear,290,2013-02-16 12:52:00
7:52 AM,12.9,10.0,88,30.26,10.0,WNW,12.7,-,N/A,,Clear,300,2013-02-16 13:52:00
8:52 AM,16.0,10.9,81,30.26,10.0,NW,11.5,-,N/A,,Clear,320,2013-02-16 14:52:00
9:12 AM,15.8,10.4,79,30.21,10.0,NNW,11.5,-,N/A,,Scattered Clouds,330,2013-02-16 15:12:00
9:26 AM,15.8,10.4,79,30.21,10.0,NNW,11.5,-,N/A,,Mostly Cloudy,330,2013-02-16 15:26:00
9:52 AM,17.1,10.0,74,30.25,9.0,NW,10.4,-,0.00,Snow,Light Snow,320,2013-02-16 15:52:00
10:52 AM,17.1,10.9,77,30.26,3.0,NW,6.9,-,0.00,Snow,Light Snow,310,2013-02-16 16:52:00
11:52 AM,19.0,12.0,74,30.24,7.0,WNW,8.1,-,0.00,Snow,Light Snow,300,2013-02-16 17:52:00
12:52 PM,19.9,12.0,71,30.22,8.0,WNW,8.1,-,0.00,,Overcast,300,2013-02-16 18:52:00
1:52 PM,21.9,12.9,68,30.19,10.0,NNW,10.4,-,N/A,,Mostly Cloudy,340,2013-02-16 19:52:00
2:52 PM,21.9,12.9,68,30.19,10.0,NW,8.1,-,N/A,,Mostly Cloudy,310,2013-02-16 20:52:00
3:42 PM,24.8,14.0,64,30.13,10.0,NNW,9.2,-,N/A,,Scattered Clouds,330,2013-02-16 21:42:00
3:52 PM,23.0,14.0,68,30.18,10.0,NW,11.5,-,N/A,,Partly Cloudy,320,2013-02-16 21:52:00
4:52 PM,24.1,14.0,65,30.18,10.0,NW,8.1,-,N/A,,Scattered Clouds,320,2013-02-16 22:52:00
5:02 PM,23.0,14.0,68,30.13,10.0,NW,5.8,-,N/A,,Mostly Cloudy,320,2013-02-16 23:02:00
5:47 PM,21.2,15.8,80,30.14,10.0,NNW,5.8,-,N/A,,Partly Cloudy,330,2013-02-16 23:47:00
5:52 PM,21.0,15.1,78,30.19,10.0,NNW,5.8,-,N/A,,Partly Cloudy,340,2013-02-16 23:52:00
6:52 PM,19.0,14.0,81,30.20,10.0,North,6.9,-,N/A,,Clear,10,2013-02-17 00:52:00
7:52 PM,19.4,12.2,74,30.14,10.0,NE,3.5,-,N/A,,Clear,50,2013-02-17 01:52:00
8:52 PM,17.1,12.0,81,30.18,10.0,East,5.8,-,N/A,,Clear,80,2013-02-17 02:52:00
9:52 PM,16.0,12.9,88,30.18,10.0,Calm,Calm,-,N/A,,Clear,0,2013-02-17 03:52:00
10:52 PM,15.1,12.0,88,30.18,10.0,East,5.8,-,N/A,,Clear,100,2013-02-17 04:52:00
11:52 PM,15.1,12.0,88,30.18,10.0,ESE,3.5,-,N/A,,Clear,120,2013-02-17 05:52:00